This demonstration page uses our WeatherBlox Daily Observations layout. Learn more.

Left ArrowRight Arrow

38.88101, -77.10428

Hourly Observations for July 18, 2021

Temp ( °F °C ) Dew Point ( °F °C ) Humidity (%) Winds ( mph kmh ) Pressure ( in mb ) Visibility ( mi km ) Precip ( " mm )
12:52 am 00:52 Mostly Cloudy 77 25 67 19.4 71 71 SW 6 9 30.01 1016 10 16 N/A
1:52 am 01:52 Mostly Cloudy 76 24.4 67 19.4 74 74 SSW 7 11 30.00 1016 10 16 N/A
2:52 am 02:52 Mostly Cloudy 76 24.4 67 19.4 74 74 SSW 6 9 29.99 1016 10 16 N/A
3:52 am 03:52 Mostly Cloudy 76 24.4 67 19.4 74 74 SSW 9 15 29.99 1016 10 16 N/A
4:52 am 04:52 Mostly Cloudy 76 24.4 68 20 77 77 WSW 6 9 30.01 1016 10 16 N/A
5:52 am 05:52 Mostly Cloudy 75 23.9 66 18.9 74 74 WNW 7 11 30.03 1017 10 16 N/A
6:52 am 06:52 Mostly Cloudy 74 23.3 62 16.7 67 67 WNW 9 15 30.04 1017 10 16 N/A
7:52 am 07:52 Sunny 75 23.9 60 15.6 60 60 WNW 16 26 30.06 1018 10 16 N/A
8:52 am 08:52 Partly Cloudy 77 25 61 16.1 58 58 NW 16 26 30.06 1018 10 16 N/A
9:52 am 09:52 Partly Cloudy 79 26.1 60 15.6 52 52 WNW 16 26 30.07 1018 10 16 N/A
10:52 am 10:52 Partly Cloudy 80 26.7 60 15.6 51 51 NW 17 28 30.07 1018 10 16 N/A
11:52 am 11:52 Partly Cloudy 82 27.8 61 16.1 49 49 NW 15 24 30.07 1018 10 16 N/A
12:52 pm 12:52 Mostly Cloudy 81 27.2 61 16.1 51 51 NW 13 20 30.06 1018 10 16 N/A
1:52 pm 13:52 Cloudy 81 27.2 61 16.1 51 51 WNW 14 22 30.05 1018 10 16 N/A
2:52 pm 14:52 Mostly Cloudy 83 28.3 61 16.1 48 48 WNW 16 26 30.05 1018 10 16 N/A
3:52 pm 15:52 Mostly Cloudy 82 27.8 62 16.7 51 51 WNW 12 19 30.06 1018 9 14 N/A
4:52 pm 16:52 Mostly Cloudy 80 26.7 60 15.6 51 51 WNW 15 24 30.05 1018 10 16 N/A
5:52 pm 17:52 Mostly Cloudy 80 26.7 61 16.1 52 52 NW 7 11 30.05 1018 10 16 N/A
6:52 pm 18:52 Mostly Cloudy 80 26.7 60 15.6 51 51 NW 9 15 30.05 1018 10 16 N/A
7:52 pm 19:52 Mostly Cloudy 79 26.1 60 15.6 52 52 NW 9 15 30.05 1018 10 16 N/A
8:52 pm 20:52 Mostly Cloudy 77 25 60 15.6 56 56 NNW 5 7 30.06 1018 10 16 N/A
9:52 pm 21:52 Mostly Cloudy 77 25 61 16.1 58 58 SW 5 7 30.07 1018 10 16 N/A
10:52 pm 22:52 Cloudy 77 25 61 16.1 58 58 SW 5 7 30.06 1018 10 16 N/A
11:52 pm 23:52 Cloudy 76 24.4 61 16.1 60 60 S 8 13 30.08 1019 10 16 N/A

Powered by AerisWeather